| time (UTC) | temp C | wind direction | speed KPH | gust KPH | rain 1hr cm | rain 24hr cm | rain mn cm | humidity % | barometer mb |
| 20260504030009 | 7 | 93 | 3.2 | 9.7 | 0.00 | 0.00 | 0.00 | 58 | 1014.9 |
| 20260504024510 | 7 | 93 | 1.6 | 11.3 | 0.00 | 0.00 | 0.00 | 58 | 1015.1 |
| 20260504023005 | 6 | 93 | 0.0 | 8.0 | 0.00 | 0.00 | 0.00 | 58 | 1015.1 |
| 20260504021504 | 7 | 93 | 0.0 | 9.7 | 0.00 | 0.00 | 0.00 | 57 | 1015.1 |
| 20260504020003 | 6 | 93 | 1.6 | 11.3 | 0.00 | 0.00 | 0.00 | 57 | 1015.1 |
| 20260504014501 | 7 | 93 | 0.0 | 6.4 | 0.00 | 0.00 | 0.00 | 57 | 1015.1 |
| 20260504013106 | 7 | 93 | 0.0 | 6.4 | 0.00 | 0.00 | 0.00 | 55 | 1014.9 |
| 20260504011555 | 7 | 93 | 0.0 | 3.2 | 0.00 | 0.00 | 0.00 | 55 | 1014.8 |
| 20260504010053 | 8 | 93 | 0.0 | 3.2 | 0.00 | 0.00 | 0.00 | 53 | 1014.8 |
| 20260504004550 | 8 | 93 | 0.0 | 9.7 | 0.00 | 0.00 | 0.00 | 51 | 1014.7 |
| 20260504003047 | 8 | 93 | 0.0 | 9.7 | 0.00 | 0.00 | 0.00 | 50 | 1014.6 |
| 20260504001542 | 9 | 93 | 1.6 | 11.3 | 0.00 | 0.00 | 0.00 | 49 | 1014.6 |
| 20260504000046 | 9 | 93 | 1.6 | 14.5 | 0.00 | 0.00 | 0.00 | 48 | 1014.6 |
| 20260503234539 | 10 | 93 | 3.2 | 17.7 | 0.00 | 0.00 | 0.00 | 49 | 1014.7 |
| 20260503233035 | 10 | 93 | 1.6 | 16.1 | 0.00 | 0.00 | 0.00 | 46 | 1014.7 |
| 20260503231534 | 10 | 93 | 1.6 | 12.9 | 0.00 | 0.00 | 0.00 | 46 | 1014.7 |
| 20260503230032 | 11 | 93 | 3.2 | 20.9 | 0.00 | 0.00 | 0.00 | 44 | 1014.8 |
| 20260503224533 | 11 | 93 | 1.6 | 17.7 | 0.00 | 0.00 | 0.00 | 46 | 1014.7 |
| 20260503223001 | 11 | 93 | 1.6 | 16.1 | 0.00 | 0.00 | 0.00 | 45 | 1014.8 |
| 20260503221602 | 11 | 93 | 3.2 | 14.5 | 0.00 | 0.00 | 0.00 | 47 | 1014.6 |
| 20260503220057 | 11 | 93 | 1.6 | 17.7 | 0.00 | 0.00 | 0.00 | 47 | 1014.7 |
| 20260503214556 | 11 | 93 | 9.7 | 27.4 | 0.00 | 0.00 | 0.00 | 46 | 1014.9 |
| 20260503213102 | 11 | 93 | 3.2 | 14.5 | 0.00 | 0.00 | 0.00 | 46 | 1014.9 |
| 20260503211611 | 10 | 93 | 3.2 | 16.1 | 0.00 | 0.00 | 0.00 | 46 | 1014.9 |
| 20260503210041 | 10 | 93 | 3.2 | 17.7 | 0.00 | 0.00 | 0.00 | 49 | 1014.8 |
| 20260503204540 | 10 | 93 | 6.4 | 19.3 | 0.00 | 0.00 | 0.00 | 45 | 1014.8 |
| 20260503203045 | 10 | 93 | 4.8 | 27.4 | 0.00 | 0.00 | 0.00 | 47 | 1014.9 |
| 20260503201535 | 11 | 93 | 12.9 | 22.5 | 0.00 | 0.00 | 0.00 | 45 | 1015.1 |
| 20260503200051 | 11 | 93 | 4.8 | 27.4 | 0.00 | 0.00 | 0.00 | 45 | 1015.3 |
| 20260503194532 | 11 | 93 | 6.4 | 19.3 | 0.00 | 0.00 | 0.00 | 47 | 1015.3 |
| 20260503193033 | 10 | 93 | 11.3 | 25.7 | 0.00 | 0.00 | 0.00 | 45 | 1015.6 |
| 20260503191525 | 10 | 93 | 6.4 | 29.0 | 0.00 | 0.00 | 0.00 | 43 | 1015.8 |
| 20260503190024 | 10 | 93 | 3.2 | 29.0 | 0.00 | 0.00 | 0.00 | 49 | 1016.0 |
| 20260503184533 | 10 | 93 | 4.8 | 24.1 | 0.00 | 0.00 | 0.00 | 46 | 1016.2 |
| 20260503183022 | 10 | 93 | 3.2 | 30.6 | 0.00 | 0.00 | 0.00 | 49 | 1016.3 |
| 20260503181522 | 10 | 93 | 16.1 | 27.4 | 0.00 | 0.00 | 0.00 | 44 | 1016.4 |
| 20260503180117 | 10 | 93 | 6.4 | 22.5 | 0.00 | 0.00 | 0.00 | 48 | 1016.3 |
| 20260503174601 | 10 | 93 | 6.4 | 27.4 | 0.00 | 0.00 | 0.00 | 47 | 1016.4 |
| 20260503173108 | 10 | 93 | 12.9 | 25.7 | 0.00 | 0.00 | 0.00 | 46 | 1016.6 |
| 20260503171554 | 10 | 93 | 11.3 | 27.4 | 0.00 | 0.00 | 0.00 | 52 | 1016.7 |
| 20260503100118 | -3 | 93 | 1.6 | 6.4 | 0.00 | 0.00 | 0.00 | 91 | 1017.2 |
| 20260503081533 | -2 | 93 | 1.6 | 4.8 | 0.00 | 0.00 | 0.00 | 89 | 1017.1 |
| 20260503071506 | -2 | 93 | 0.0 | 3.2 | 0.00 | 0.00 | 0.00 | 87 | 1016.7 |
| 20260503054550 | 0 | 93 | 0.0 | 4.8 | 0.00 | 0.00 | 0.00 | 83 | 1017.0 |
| 20260503053050 | 0 | 93 | 0.0 | 4.8 | 0.00 | 0.00 | 0.00 | 82 | 1017.1 |
| 20260503051550 | 0 | 93 | 1.6 | 4.8 | 0.00 | 0.00 | 0.00 | 82 | 1017.3 |
| 20260503050049 | 0 | 93 | 0.0 | 4.8 | 0.00 | 0.00 | 0.00 | 82 | 1017.4 |
| 20260503044547 | 0 | 93 | 0.0 | 6.4 | 0.00 | 0.00 | 0.00 | 81 | 1017.5 |
| 20260503043044 | 0 | 93 | 3.2 | 6.4 | 0.00 | 0.00 | 0.00 | 81 | 1017.5 |
| 20260503041543 | 0 | 93 | 1.6 | 4.8 | 0.00 | 0.00 | 0.00 | 81 | 1017.4 |
| 20260503040040 | 0 | 93 | 1.6 | 4.8 | 0.00 | 0.00 | 0.00 | 81 | 1017.5 |
| 20260503034537 | 0 | 93 | 1.6 | 4.8 | 0.00 | 0.00 | 0.00 | 79 | 1017.6 |
| 20260503033039 | 0 | 93 | 1.6 | 6.4 | 0.00 | 0.00 | 0.00 | 78 | 1017.6 |
| 20260503031535 | 0 | 93 | 0.0 | 4.8 | 0.00 | 0.03 | 0.00 | 77 | 1017.6 |